[[{"header":{"parameterUnit":"m.s-1","parameterCategory":1,"la1":30.2991,"la2":30.254,"lo1":-89.0895,"lo2":-89.0444,"dy":0.0017,"dx":0.0017,"nx":28,"ny":28,"refTime":"2023-03-20T15:00:00:Z","depth":0,"parameterNumber":2,"parameterNumberName":"U-component_of_WINDS"},"data":[0,0,0,0,0,0,0,0,0,0,0,0,0,0,0,0,0,0,0,0,0,0,0,0,0,0,0,0,0,0,0,0,0,0,0,0,0,0,0,0,0,0,0,0,0,0,0,0,0,0,0,0,0,0,0,0,0,0,-3.5333,-3.5334,0,-3.5465,-3.5466,-3.5468,-3.5468,-3.5467,-3.5465,-3.5463,-3.5597,-3.5602,-3.5607,0,0,0,0,0,0,0,0,0,0,0,0,0,-3.508,-3.5085,-3.5332,-3.5334,-3.5336,-3.5464,-3.5466,-3.5468,-3.5469,-3.5467,-3.5465,-3.5463,-3.5595,-3.5601,-3.5608,0,0,0,0,0,0,0,0,0,0,0,0,0,-3.5199,-3.5086,-3.5332,-3.5352,-3.5355,-3.5464,-3.5466,-3.5468,-3.5469,-3.5467,-3.5464,-3.5462,-3.5593,-3.5601,-3.5608,-3.5707,0,0,-3.5632,-3.5635,0,0,0,0,0,0,0,0,-3.5192,-3.5208,-3.5347,-3.5351,-3.5354,-3.5447,-3.5426,-3.5548,-3.547,-3.5426,-3.5463,-3.546,-3.5549,-3.556,-3.5591,-3.5713,-3.5719,-3.5633,-3.5637,-3.5641,-3.5643,0,0,0,0,0,0,0,-3.5184,-3.5202,-3.5385,-3.5349,-3.5354,-3.5354,-3.5368,-3.5449,-3.55,-3.5429,-3.543,-3.5445,-3.5551,-3.5583,-3.5594,-3.5721,-3.5632,-3.5639,-3.5644,-3.5647,-3.5929,-3.5932,0,0,0,0,0,0,-3.5172,-3.5195,-3.5381,-3.5389,-3.5265,-3.536,-3.5376,-3.542,-3.5499,-3.5509,-3.5447,-3.5445,-3.5571,-3.5585,-3.5599,-3.5718,-3.5641,-3.5648,-3.5652,-3.5927,-3.593,-3.5933,0,0,0,0,0,0,-3.5166,-3.5188,-3.5375,-3.5292,-3.5316,-3.5367,-3.5417,-3.5424,-3.5457,-3.5513,-3.5522,-3.5471,-3.557,-3.5588,-3.568,-3.5722,-3.5651,-3.5658,-3.5923,-3.5928,-3.5932,-3.5957,0,0,0,0,0,0,-3.5159,-3.5186,-3.5224,-3.5293,-3.5321,-3.5454,-3.542,-3.5428,-3.547,-3.5468,-3.5538,-3.5547,-3.5569,-3.5668,-3.5687,-3.5732,-3.5664,-3.592,-3.5925,-3.593,-3.5953,-3.5962,-3.597,0,0,0,0,0,-3.515,-3.5226,-3.5226,-3.5248,-3.5369,-3.5457,-3.5472,-3.5497,-3.5473,-3.5512,-3.5548,-3.5545,-3.5715,-3.5678,-3.5699,-3.5746,-3.5917,-3.5924,-3.593,-3.5949,-3.596,-3.5969,0,0,0,0,0,0,-3.516,-3.5235,-3.5236,-3.5337,-3.5391,-3.5457,-3.5506,-3.5508,-3.5569,-3.5565,-3.5593,-3.5609,-3.57,-3.5733,-3.569,-3.5845,-3.5813,-3.5824,-3.582,-3.5831,-3.5839,-3.5828,-3.5671,0,0,0,0,0,-3.5174,-3.524,-3.5302,-3.5384,-3.5411,-3.5454,-3.5493,-3.5508,-3.5564,-3.5587,-3.563,-3.5685,-3.575,-3.5793,-3.5857,-3.5958,-3.5973,-3.6002,-3.601,-3.6017,-3.6025,-3.608,-3.6093,-3.5955,-3.5954,-3.5954,0,0,-3.5203,-3.5253,-3.5292,-3.5388,-3.5431,-3.5497,-3.5473,-3.5545,-3.5594,-3.5598,-3.5687,-3.5721,-3.5783,-3.588,-3.5925,-3.591,-3.6067,-3.6025,-3.603,-3.6035,-3.6088,-3.6101,-3.6113,-3.5959,-3.5958,-3.5957,0,0,-3.529,-3.5335,-3.5408,-3.5452,-3.5518,-3.5547,-3.5564,-3.5631,-3.5653,-3.5744,-3.5747,-3.5807,-3.592,-3.5964,-3.6002,-3.6107,-3.6105,-3.6127,-3.617,-3.6223,-3.6234,-3.6244,-3.628,-3.6293,-3.6136,-3.6136,-3.6136,0,-3.5318,-3.5419,-3.5445,-3.5517,-3.5559,-3.5566,-3.564,-3.5682,-3.5765,-3.5793,-3.5776,-3.5918,-3.5961,-3.6068,-3.6094,-3.6125,-3.6145,-3.6118,-3.6231,-3.6241,-3.625,-3.6285,-3.6298,-3.6138,-3.6138,-3.6137,-3.6137,0,-3.5449,-3.5519,-3.557,-3.565,-3.5698,-3.5771,-3.5808,-3.5853,-3.5864,-3.5894,-3.5986,-3.6038,-3.6112,-3.6139,-3.615,-3.6248,-3.6236,-3.6225,-3.6192,-3.6265,-3.6298,-3.6311,-3.6141,-3.614,-3.6139,-3.6139,0,0,-3.5544,-3.5639,-3.5657,-3.5693,-3.5767,-3.5822,-3.5895,-3.5968,-3.6005,-3.6063,-3.6124,-3.6221,-3.621,-3.6253,-3.627,-3.6317,-3.6395,-3.63,-3.6302,-3.6314,-3.6504,-3.651,-3.6525,-3.6396,-3.6398,-3.6401,-3.6498,0,-3.5637,-3.5766,-3.5793,-3.5905,-3.5969,-3.5978,-3.6042,-3.6094,-3.6124,-3.6183,-3.6216,-3.6283,-3.6266,-3.6291,-3.6339,-3.6375,-3.6433,-3.6369,-3.6451,-3.6454,-3.6433,-3.6542,-3.6549,-3.6638,-3.6511,-3.6513,-3.6515,0,-3.5762,-3.5823,-3.5942,-3.6007,-3.6035,-3.6091,-3.616,-3.6217,-3.6276,-3.6295,-3.6343,-3.6355,-3.6431,-3.6397,-3.6501,-3.6457,-3.6492,-3.6516,-3.652,-3.6526,-3.6487,-3.655,-3.6668,-3.668,-3.6535,-3.6534,-3.6532,0,-3.5817,-3.5929,-3.6014,-3.6045,-3.6124,-3.6164,-3.6198,-3.6255,-3.6297,-3.6358,-3.6385,-3.6454,-3.6491,-3.6544,-3.6574,-3.6547,-3.6675,-3.6644,-3.6692,-3.6691,-3.6716,-3.6714,-3.6839,-3.6743,-3.6743,-3.6743,-3.6742,0,-3.5917,-3.5989,-3.604,-3.6092,-3.6172,-3.6203,-3.6281,-3.6316,-3.6366,-3.6425,-3.6438,-3.6492,-3.653,-3.6589,-3.6614,-3.6695,-3.6713,-3.6729,-3.6734,-3.6727,-3.6724,-3.6748,-3.6742,-3.6746,-3.6745,-3.6745,-3.6744,0,-3.5991,-3.6028,-3.6121,-3.6188,-3.6207,-3.6263,-3.6321,-3.6371,-3.6403,-3.6476,-3.6496,-3.6544,-3.6615,-3.6651,-3.674,-3.6756,-3.6848,-3.685,-3.6827,-3.6829,-3.6874,-3.6868,-3.7017,-3.7038,-3.693,-3.6931,-3.6932,0,-3.6051,-3.6106,-3.618,-3.622,-3.6255,-3.632,-3.6363,-3.6396,-3.644,-3.6512,-3.6554,-3.6626,-3.6685,-3.6799,-3.6841,-3.6909,-3.6912,-3.696,-3.6922,-3.6913,-3.691,-3.6906,-3.6911,-3.6965,-3.6966,-3.6967,-3.6968,0,-3.6153,-3.6169,-3.6231,-3.6299,-3.6351,-3.6406,-3.6461,-3.6493,-3.6534,-3.6583,-3.6656,-3.6702,-3.6793,-3.6864,-3.6935,-3.697,-3.6976,-3.698,-3.6994,-3.6986,-3.6969,-3.6977,-3.6843,-3.6976,-3.6975,-3.6974,-3.6974,-3.6974,-3.6221,-3.627,-3.6329,-3.6397,-3.6442,-3.6493,-3.6544,-3.6581,-3.6643,-3.6719,-3.6735,-3.6812,-3.687,-3.6966,-3.7004,-3.7065,-3.7054,-3.7075,-3.708,-3.7084,-3.7085,-3.6962,-3.7078,-3.7078,-3.7078,-3.7078,-3.7078,0,-3.6322,-3.6361,-3.6423,-3.6499,-3.6553,-3.6555,-3.6616,-3.666,-3.6728,-3.6782,-3.684,-3.6924,-3.6993,-3.7042,-3.7112,-3.7151,-3.7155,-3.7168,-3.7164,-3.7172,-3.7092,-3.7071,-3.7163,-3.7163,-3.7163,-3.7163,-3.7163,-3.7163,-3.6381,-3.6464,-3.6486,-3.6592,-3.663,-3.6705,-3.674,-3.6787,-3.683,-3.6923,-3.698,-3.7012,-3.7064,-3.7138,-3.7201,-3.7214,-3.7238,-3.7251,-3.7263,-3.7187,-3.7178,-3.7169,-3.715,-3.7256,-3.7256,-3.7338,-3.7338,-3.7339]},{"header":{"parameterUnit":"m.s-1","parameterCategory":1,"la1":30.2991,"la2":30.254,"lo1":-89.0895,"lo2":-89.0444,"dy":0.0017,"dx":0.0017,"nx":28,"ny":28,"refTime":"2023-03-20T15:00:00:Z","depth":0,"parameterNumber":3,"parameterNumberName":"V-component_of_WINDS"},"data":[0,0,0,0,0,0,0,0,0,0,0,0,0,0,0,0,0,0,0,0,0,0,0,0,0,0,0,0,0,0,0,0,0,0,0,0,0,0,0,0,0,0,0,0,0,0,0,0,0,0,0,0,0,0,0,0,0,0,3.6696,3.6696,0,3.6703,3.6703,3.6704,3.6628,3.6626,3.6624,3.6622,3.6628,3.663,3.6632,0,0,0,0,0,0,0,0,0,0,0,0,0,3.6615,3.6617,3.6696,3.6696,3.6696,3.6703,3.6703,3.6704,3.6628,3.6626,3.6623,3.6621,3.6627,3.6629,3.6632,0,0,0,0,0,0,0,0,0,0,0,0,0,3.6639,3.6618,3.6696,3.666,3.6657,3.6703,3.6703,3.6704,3.6629,3.6626,3.6623,3.662,3.6626,3.6629,3.6632,3.6714,0,0,3.6642,3.6643,0,0,0,0,0,0,0,0,3.6638,3.6642,3.6665,3.6662,3.6659,3.6662,3.6677,3.6707,3.663,3.6639,3.6622,3.6618,3.6641,3.6643,3.6651,3.6714,3.6714,3.6642,3.6644,3.6645,3.6646,0,0,0,0,0,0,0,3.6637,3.6642,3.6699,3.6665,3.6662,3.6642,3.6642,3.6682,3.6658,3.6638,3.6633,3.6635,3.6639,3.6648,3.6651,3.6714,3.6642,3.6645,3.6647,3.6648,3.6843,3.6846,0,0,0,0,0,0,3.664,3.6641,3.6699,3.6699,3.6641,3.6646,3.6646,3.6664,3.6657,3.6653,3.6638,3.6631,3.6644,3.6647,3.6651,3.6744,3.6645,3.6648,3.665,3.684,3.6844,3.6848,0,0,0,0,0,0,3.6639,3.6646,3.6698,3.6669,3.6674,3.6651,3.6671,3.6666,3.6675,3.6656,3.6651,3.6652,3.6642,3.6646,3.6698,3.6743,3.665,3.6652,3.6836,3.6841,3.6846,3.6933,0,0,0,0,0,0,3.6637,3.6646,3.6677,3.667,3.6676,3.6747,3.6674,3.6668,3.6681,3.6673,3.6668,3.6665,3.664,3.6694,3.6702,3.6746,3.6655,3.6832,3.6838,3.6844,3.6926,3.6941,3.6953,0,0,0,0,0,3.6634,3.6701,3.6679,3.6686,3.6714,3.675,3.6753,3.6724,3.6685,3.6715,3.6703,3.6665,3.6738,3.67,3.6708,3.6754,3.6829,3.6837,3.6844,3.692,3.6938,3.6953,0,0,0,0,0,0,3.6713,3.6699,3.6675,3.6741,3.6747,3.6737,3.6774,3.6743,3.676,3.6751,3.6714,3.6714,3.6772,3.6768,3.6727,3.6832,3.6776,3.6786,3.6832,3.6849,3.6862,3.686,3.6657,0,0,0,0,0,3.6739,3.6769,3.6755,3.6816,3.682,3.6797,3.6811,3.6789,3.6793,3.6795,3.6787,3.6792,3.6816,3.6832,3.6853,3.6926,3.6924,3.6962,3.6975,3.6986,3.6994,3.7031,3.7048,3.6872,3.6872,3.6872,0,0,3.6791,3.6787,3.6808,3.6831,3.6833,3.6865,3.6799,3.6836,3.6859,3.68,3.6848,3.6843,3.6846,3.6909,3.6936,3.6908,3.7043,3.6996,3.7005,3.7007,3.7041,3.7057,3.7072,3.6877,3.6876,3.6876,0,0,3.6902,3.6903,3.6953,3.6956,3.696,3.6945,3.6957,3.6952,3.6946,3.6994,3.6951,3.6977,3.702,3.7024,3.7031,3.7145,3.711,3.7154,3.7223,3.7259,3.7273,3.7285,3.7324,3.7339,3.7162,3.7162,3.7162,0,3.6966,3.7012,3.6982,3.7022,3.7032,3.6982,3.7032,3.7036,3.7047,3.7055,3.7024,3.7076,3.7075,3.7137,3.7165,3.7174,3.7185,3.7153,3.7274,3.7286,3.7296,3.7333,3.7348,3.7167,3.7167,3.7166,3.7166,0,3.709,3.7124,3.7163,3.7176,3.7191,3.7236,3.7211,3.7231,3.7207,3.7195,3.7245,3.7242,3.7261,3.7275,3.7252,3.7334,3.7316,3.728,3.7223,3.7319,3.7353,3.7367,3.7175,3.7173,3.7171,3.717,0,0,3.7249,3.7245,3.726,3.7265,3.7266,3.7291,3.7333,3.7353,3.737,3.7379,3.7413,3.7451,3.7417,3.7426,3.7403,3.7436,3.7525,3.7395,3.7395,3.7418,3.7614,3.764,3.7657,3.7502,3.7505,3.7507,3.7613,0,3.7356,3.7428,3.7402,3.7476,3.7505,3.7459,3.7495,3.75,3.749,3.7513,3.7502,3.7529,3.7484,3.7488,3.7519,3.7508,3.7563,3.75,3.7532,3.7533,3.753,3.7674,3.7702,3.7802,3.7626,3.7628,3.763,0,3.749,3.7505,3.7582,3.7578,3.759,3.7623,3.7639,3.7662,3.7666,3.7657,3.7668,3.7638,3.7678,3.7624,3.7678,3.7636,3.7648,3.7644,3.7647,3.7647,3.7586,3.7677,3.7833,3.7848,3.7651,3.7649,3.7648,0,3.7596,3.7636,3.7687,3.7693,3.769,3.7715,3.7714,3.7716,3.7729,3.7743,3.7751,3.777,3.778,3.7795,3.7771,3.7733,3.7829,3.7772,3.7821,3.7822,3.7841,3.784,3.8,3.7853,3.7852,3.7852,3.7852,0,3.7717,3.7765,3.7735,3.7766,3.7818,3.7788,3.7841,3.7836,3.7838,3.7866,3.7827,3.7855,3.7823,3.7847,3.7829,3.7876,3.7882,3.7874,3.7868,3.7877,3.7877,3.7882,3.7874,3.7856,3.7855,3.7854,3.7854,0,3.7843,3.7825,3.7877,3.7871,3.787,3.7909,3.7903,3.7931,3.792,3.7956,3.7963,3.7944,3.7971,3.795,3.7976,3.7963,3.8026,3.8011,3.8024,3.802,3.8069,3.8064,3.8236,3.8257,3.8098,3.81,3.8101,0,3.7921,3.7957,3.7955,3.7971,3.7974,3.8001,3.8015,3.7988,3.8004,3.8012,3.8039,3.8062,3.808,3.8125,3.8113,3.8133,3.8117,3.8176,3.8119,3.8126,3.8116,3.8113,3.8116,3.8187,3.8189,3.819,3.8191,0,3.8059,3.8049,3.807,3.8089,3.8107,3.812,3.8131,3.8147,3.8118,3.8138,3.8166,3.8179,3.8206,3.823,3.8246,3.8245,3.8213,3.821,3.8222,3.8229,3.8235,3.8231,3.8053,3.8205,3.8204,3.8203,3.8202,3.8201,3.8162,3.8192,3.8195,3.822,3.8225,3.8236,3.8262,3.8254,3.8276,3.8296,3.8279,3.8312,3.8315,3.8333,3.8337,3.8361,3.8337,3.8354,3.8359,3.8363,3.8369,3.8233,3.8364,3.8364,3.8363,3.8363,3.8363,0,3.8297,3.8297,3.8321,3.8337,3.8357,3.8327,3.8337,3.8355,3.8385,3.8391,3.8409,3.844,3.8464,3.8454,3.8474,3.8496,3.8482,3.8502,3.8499,3.8499,3.8391,3.8378,3.8513,3.8513,3.8513,3.8513,3.8513,3.8513,3.8369,3.8418,3.8408,3.8458,3.8458,3.849,3.8498,3.8507,3.8512,3.8549,3.8568,3.8562,3.8562,3.8582,3.8602,3.8598,3.8607,3.8632,3.8623,3.8522,3.8507,3.8493,3.848,3.8634,3.8634,3.8729,3.873,3.873]}]]